Regional Weather Roundup
Issued by NWS

Home | Current Version | Previous Version | Text Only | Print | Product List | Glossary Off
Versions: 1 2 3 4 5 6 7 8 9 10 11 12 13 14 15 16 17 18 19 20 21 22 23 24 25 26 27 28 29 30 31 32 33 34 35 36 37 38 39 40 41 42 43 44 45 46 47 48 49 50

862
ASUS45 KPSR 240710
RWRAZ

ARIZONA HOURLY REGIONAL WEATHER ROUNDUP
NATIONAL WEATHER SERVICE PHOENIX AZ
1200 AM MST TUE MAY 24 2016

NOTE: FAIR INDICATES FEW OR NO CLOUDS BELOW 12,000 FEET WITH NO
SIGNIFICANT WEATHER AND/OR OBSTRUCTIONS TO VISIBILITY.

AZZ001>003-036-240800-
NORTHWEST ARIZONA

CITY           SKY/WX    TMP DP  RH WIND       PRES   REMARKS
BULLHEAD CITY  CLEAR     77  23  13 S14       29.70R
KINGMAN        CLEAR     61  18  18 S10       29.81F
$$

AZZ004>008-015-016-018-240800-
NORTH CENTRAL ARIZONA

CITY           SKY/WX    TMP DP  RH WIND       PRES   REMARKS
GRAND CANYON   CLEAR     45  21  38 SW5       29.97F
WILLIAMS       CLEAR     50  19  29 S10G17    30.05S
PRESCOTT       CLEAR     53  27  36 S3        29.93S
FLAGSTAFF      CLEAR     40  23  50 CALM      30.00F
PAYSON         CLEAR     59  19  21 CALM      29.97F
PAGE           CLEAR     69  17  13 VRB7      29.81R
$$

AZZ009>014-017-240800-
NORTHEAST ARIZONA

CITY           SKY/WX    TMP DP  RH WIND       PRES   REMARKS
WINSLOW        CLEAR     52  19  27 S8        29.93S
SAINT JOHNS    CLEAR     49  26  41 SW5       29.98R
WINDOW ROCK    CLEAR     53  13  20 SE3       30.02S
SHOW LOW       CLEAR     46  23  39 S8        30.03S
$$

AZZ023-240800-
GREATER PHOENIX AREA

CITY           SKY/WX    TMP DP  RH WIND       PRES   REMARKS
PHOENIX        CLEAR     77  28  16 W5        29.75R
BUCKEYE        CLEAR     68  28  22 SW12      29.78S
LUKE AFB       CLEAR     75  30  19 SW13      29.75S
DEER VALLEY    CLEAR     75  27  17 SW7       29.77R
SCOTTSDALE     CLEAR     75  29  18 CALM      29.79R
MESA-GATEWAY   CLEAR     72  30  21 SE3       29.79S
$$

AZZ027-028-240800-
SOUTHWEST MARICOPA COUNTY AND PINAL COUNTY

CITY           SKY/WX    TMP DP  RH WIND       PRES   REMARKS
CASA GRANDE    CLEAR     72  25  17 S6        29.82R
GILA BEND      FAIR      72  25  17 SE8       29.76R
$$

AZZ503-504-507>509-240800-
SOUTHEAST ARIZONA

CITY           SKY/WX    TMP DP  RH WIND       PRES   REMARKS
TUCSON         CLEAR     72  25  17 SE7       29.90R
DAVIS-MONTHAN  CLEAR     69  26  19 SE2       29.88S
NOGALES        CLEAR     62  28  27 S5        29.96R
SIERRA VISTA   CLEAR     66  23  19 S16       29.99S
DOUGLAS        CLEAR     68  29  23 S7        29.97S
SAFFORD        CLEAR     71  22  15 NW12      29.86R
$$

AZZ020-021-025-026-031-240800-
SOUTHWEST ARIZONA

CITY           SKY/WX    TMP DP  RH WIND       PRES   REMARKS
YUMA           CLEAR     70  37  29 W6        29.77S
$$

CAZ031-033-041-043-047-048-061-240800-
SOUTHERN CALIFORNIA

CITY           SKY/WX    TMP DP  RH WIND       PRES   REMARKS
DOWNTOWN L.A.  CLEAR     59  53  80 CALM      29.93S
L.A. AIRPORT   PTCLDY    58  52  80 W8        29.93F
SAN DIEGO      CLOUDY    63  50  62 SE7       29.97S
BURBANK        MOCLDY    59  50  72 SE8       29.91F
ONTARIO        MOCLDY    57  48  72 W7        29.93S
RIVERSIDE      PTCLDY    58  48  69 NE3       29.93S
PALM SPRINGS   CLEAR     68  45  43 NW17G28   29.77R
EL CENTRO NAS  CLEAR     67  37  33 W25       29.77F
IMPERIAL       CLEAR     68  39  34 W20G30    29.74F
BLYTHE         CLEAR     76  41  28 SW22G33   29.72R
NEEDLES        CLEAR     78  30  17 SW15      29.69R
$$

NVZ020-UTZ003-240800-
SOUTHERN NEVADA-UTAH

CITY           SKY/WX    TMP DP  RH WIND       PRES   REMARKS
LAS VEGAS      CLEAR     71  32  23 SW16G25   29.69R
SALT LAKE CITY PTCLDY    53  43  68 S3        29.81F
$$

NMZ009-TXZ055-240800-
NEW MEXICO-WEST TEXAS

CITY           SKY/WX    TMP DP  RH WIND       PRES   REMARKS
ALBUQUERQUE    CLEAR     59  15  18 SE8       29.95R
EL PASO        PTCLDY    79  16   9 W23G35    29.90R
$$


........................KEY........................
SKY/WX - SKY CONDITION/WEATHER
TMP    - TEMPERATURE IN FAHRENHEIT
DP     - DEW POINT IN FAHRENHEIT
RH     - RELATIVE HUMIDITY IN PERCENT
WIND   - DIRECTION AND SPEED IN MILES PER HOUR (MPH)
VRB    - VARIABLE WIND DIRECTION
PRES   - MEAN SEA LEVEL PRESSURE IN INCHES OF MERCURY
         F - FALLING PRESSURE   R - RISING PRESSURE
         S - STEADY PRESSURE
VSB    - VISIBILITY IN MILES
HX     - HEAT INDEX IN FAHRENHEIT
WCI    - WIND CHILL INDEX IN FAHRENHEIT
TC     - TEMPERATURE IN CELSIUS WHICH IS ALSO KNOWN AS
         TEMPERATURE IN CENTIGRADE
AFB    - AIR FORCE BASE
         LUKE AFB IS LUKE AIR FORCE BASE
         DAVIS-MONTHAN IS DAVIS-MONTHAN AIR FORCE BASE
NAS    - NAVAL AIR STATION
         EL CENTRO NAS IS EL CENTRO NAVAL AIR STATION
N/A    - NOT AVAILABLE





USA.gov is the U.S. government's official web portal to all federal, state and local government web resources and services.